EW0139 Weather Reports


time (UTC)temp
C
wind
direction
speed
KPH
gust
KPH
rain 1hr
cm
rain 24hr
cm
rain mn
cm
humidity
%
barometer
mb
20260508202746 22 267 12.9 32.2 0.00 0.05 0.00 27 1007.1
20260508201746 22 257 17.7 30.6 0.00 0.05 0.00 27 1007.3
20260508200810 22 188 8.0 24.1 0.00 0.05 0.00 28 1007.2
20260508195748 22 213 19.3 30.6 0.00 0.05 0.00 28 1007.4
20260508194749 22 227 19.3 25.7 0.00 0.05 0.00 28 1007.7
20260508193751 21 234 8.0 24.1 0.00 0.05 0.00 27 1007.6
20260508192755 21 238 22.5 27.4 0.00 0.05 0.00 30 1007.8
20260508191754 21 258 16.1 29.0 0.00 0.05 0.00 28 1008.1
20260508190756 21 252 9.7 25.7 0.00 0.05 0.00 29 1008.2
20260508185755 20 236 16.1 22.5 0.00 0.05 0.00 32 1008.4
20260508184744 21 264 12.9 32.2 0.00 0.05 0.00 29 1008.8
20260508183744 20 267 19.3 22.5 0.00 0.05 0.00 30 1009.0
20260508182804 19 244 9.7 17.7 0.00 0.05 0.00 31 1009.1
20260508181745 20 205 17.7 24.1 0.00 0.05 0.00 31 1009.3
20260508180746 20 242 8.0 30.6 0.00 0.05 0.00 30 1009.5
20260508175751 20 186 9.7 20.9 0.00 0.05 0.00 31 1009.7
20260508174752 20 184 20.9 20.9 0.00 0.05 0.00 33 1010.0
20260508173813 20 201 11.3 25.7 0.00 0.05 0.00 30 1009.9
20260508172753 20 198 3.2 17.7 0.00 0.05 0.00 33 1010.0
20260508171753 19 225 11.3 22.5 0.00 0.05 0.00 31 1010.0
20260508170756 18 183 9.7 20.9 0.00 0.05 0.00 33 1010.2
20260508165739 18 211 16.1 25.7 0.00 0.05 0.00 34 1010.5
20260508164741 18 167 16.1 22.5 0.00 0.05 0.00 33 1010.6
20260508163745 18 166 16.1 24.1 0.00 0.05 0.00 37 1010.6
20260508162752 17 138 19.3 24.1 0.00 0.05 0.00 37 1010.7
20260508161815 16 170 19.3 24.1 0.00 0.05 0.00 39 1010.8
20260508160755 16 156 19.3 22.5 0.00 0.05 0.00 41 1010.9
20260508155813 15 198 16.1 19.3 0.00 0.05 0.00 43 1011.1
20260508154751 14 161 14.5 17.7 0.00 0.05 0.00 48 1011.2
20260508153816 13 190 8.0 19.3 0.00 0.05 0.00 47 1011.4
20260508152755 13 188 6.4 11.3 0.00 0.05 0.00 49 1010.5
20260508151817 12 169 4.8 11.3 0.00 0.05 0.00 48 1010.7
20260508150755 12 200 8.0 9.7 0.00 0.05 0.00 50 1010.8
20260508145738 11 200 8.0 8.0 0.00 0.05 0.00 48 1010.8
20260508144804 10 287 1.6 6.4 0.00 0.05 0.00 51 1010.8
20260508143804 10 286 0.0 8.0 0.00 0.05 0.00 54 1010.8
20260508142742 9 313 0.0 6.4 0.00 0.05 0.00 56 1010.9
20260508141741 8 313 0.0 8.0 0.00 0.05 0.00 58 1011.1
20260508140746 8 315 1.6 3.2 0.00 0.05 0.00 63 1011.1
20260508135750 7 315 1.6 6.4 0.00 0.05 0.00 63 1011.1
20260508134750 6 315 3.2 6.4 0.00 0.05 0.00 62 1011.1
20260508133809 6 315 4.8 4.8 0.00 0.05 0.00 60 1011.1
20260508132748 5 315 0.0 1.6 0.00 0.05 0.00 69 1011.1
20260508131751 3 315 0.0 3.2 0.00 0.05 0.00 73 1011.2
20260508130755 3 315 1.6 4.8 0.00 0.05 0.00 74 1011.3
20260508125756 2 315 0.0 0.0 0.00 0.05 0.00 76 1011.1
20260508124757 1 315 0.0 3.2 0.00 0.05 0.00 78 1011.2
20260508123756 0 315 4.8 4.8 0.00 0.05 0.00 79 1011.2
20260508122741 0 315 0.0 0.0 0.00 0.05 0.00 78 1011.1
20260508121742 0 315 0.0 3.2 0.00 0.05 0.00 78 1010.9
20260508120744 1 315 0.0 4.8 0.00 0.05 0.00 77 1010.7
20260508115749 1 315 0.0 0.0 0.00 0.05 0.00 76 1010.7
20260508114752 1 315 0.0 1.6 0.00 0.05 0.00 75 1010.6
20260508113753 2 315 0.0 1.6 0.00 0.05 0.00 73 1010.6
20260508112756 2 315 0.0 4.8 0.00 0.05 0.00 72 1010.6
20260508111756 3 315 1.6 8.0 0.00 0.05 0.00 68 1010.5
20260508110742 3 302 6.4 8.0 0.00 0.05 0.00 68 1010.5
20260508105741 3 313 6.4 9.7 0.00 0.05 0.00 67 1010.3
20260508104744 3 311 0.0 11.3 0.00 0.05 0.00 66 1010.3
20260508103749 4 331 8.0 14.5 0.00 0.05 0.00 65 1010.2
20260508102750 4 339 6.4 8.0 0.00 0.05 0.00 66 1010.2
20260508101755 3 299 3.2 4.8 0.00 0.05 0.00 68 1010.0
20260508100756 3 296 0.0 4.8 0.00 0.05 0.00 68 1009.9
20260508095756 4 296 3.2 6.4 0.00 0.05 0.00 67 1009.9
20260508094759 3 296 3.2 3.2 0.00 0.05 0.00 68 1009.7
20260508093742 3 279 1.6 8.0 0.00 0.05 0.00 70 1009.6
20260508092743 4 304 3.2 3.2 0.00 0.05 0.00 69 1009.5
20260508091741 4 304 3.2 14.5 0.00 0.05 0.00 69 1009.3
20260508090801 4 274 8.0 16.1 0.00 0.05 0.00 71 1009.2
20260508085745 3 277 6.4 6.4 0.00 0.05 0.00 76 1009.1
20260508084746 2 275 1.6 11.3 0.00 0.05 0.00 79 1009.0
20260508083746 2 262 1.6 3.2 0.00 0.05 0.00 80 1009.0
20260508082749 2 262 0.0 0.0 0.00 0.05 0.00 81 1008.8
20260508081753 2 262 0.0 0.0 0.00 0.05 0.00 79 1008.8
20260508080755 2 262 0.0 0.0 0.00 0.05 0.00 80 1008.8
20260508075755 3 262 0.0 0.0 0.00 0.05 0.00 79 1008.7
20260508074817 4 262 0.0 1.6 0.00 0.05 0.00 75 1008.6
20260508073755 5 262 0.0 1.6 0.00 0.05 0.00 72 1008.5
20260508072742 5 262 0.0 1.6 0.00 0.05 0.00 73 1008.5
20260508071804 6 262 1.6 4.8 0.00 0.05 0.00 72 1008.4
20260508070744 6 262 3.2 4.8 0.00 0.05 0.00 76 1008.4
20260508065744 6 262 1.6 6.4 0.00 0.05 0.00 73 1008.3
20260508064747 5 262 3.2 6.4 0.00 0.05 0.00 75 1008.3
20260508063751 4 262 3.2 4.8 0.00 0.05 0.00 80 1008.2
20260508062754 4 262 1.6 3.2 0.00 0.05 0.00 80 1008.2
20260508061817 4 262 0.0 0.0 0.00 0.05 0.00 81 1008.1
20260508060738 5 262 0.0 3.2 0.00 0.05 0.00 80 1008.0
20260508055746 5 262 0.0 4.8 0.00 0.05 0.05 78 1007.9
20260508054747 5 262 1.6 8.0 0.00 0.05 0.05 80 1007.9
20260508053748 6 200 4.8 4.8 0.00 0.05 0.05 77 1007.8
20260508052746 7 195 0.0 0.0 0.00 0.05 0.05 76 1007.7
20260508051751 7 194 0.0 0.0 0.00 0.05 0.05 74 1007.6
20260508050754 8 195 0.0 1.6 0.00 0.05 0.05 74 1007.6
20260508045756 8 195 0.0 4.8 0.00 0.05 0.05 72 1007.6
20260508044756 8 195 0.0 6.4 0.00 0.05 0.05 71 1007.6
20260508043739 9 195 4.8 6.4 0.00 0.05 0.05 73 1007.5
20260508042744 9 194 4.8 8.0 0.00 0.05 0.05 73 1007.4
20260508041744 8 188 4.8 8.0 0.00 0.05 0.05 75 1007.3
20260508040744 8 64 1.6 3.2 0.00 0.05 0.05 75 1007.2
20260508035748 8 63 0.0 4.8 0.00 0.05 0.05 74 1007.2
20260508034746 9 63 0.0 3.2 0.00 0.05 0.05 74 1007.2
20260508033745 9 63 0.0 4.8 0.00 0.05 0.05 73 1007.2
20260508032807 10 63 1.6 3.2 0.00 0.05 0.05 73 1007.1
20260508031748 10 63 0.0 0.0 0.00 0.05 0.05 71 1007.2
20260508030751 11 63 0.0 0.0 0.00 0.05 0.05 71 1006.9
20260508025750 11 63 1.6 3.2 0.00 0.05 0.05 70 1006.8
20260508024751 11 63 3.2 8.0 0.00 0.05 0.05 71 1006.8
20260508023753 11 15 3.2 3.2 0.00 0.05 0.05 69 1006.9
20260508022757 12 16 0.0 0.0 0.03 0.05 0.05 71 1006.8
20260508021800 12 16 0.0 6.4 0.05 0.05 0.05 67 1006.5
20260508020742 12 5 4.8 8.0 0.05 0.05 0.05 66 1006.6
20260508015745 13 248 0.0 8.0 0.05 0.05 0.05 63 1006.9
20260508014751 13 313 1.6 6.4 0.05 0.05 0.05 66 1007.1
20260508013815 13 313 6.4 16.1 0.05 0.05 0.05 68 1007.3
20260508012817 13 308 11.3 43.5 0.03 0.03 0.03 62 1007.4
20260508011756 17 279 27.4 41.8 0.00 0.00 0.00 42 1007.4
20260508010757 18 209 16.1 20.9 0.00 0.00 0.00 39 1006.4
20260508005741 18 210 9.7 20.9 0.00 0.00 0.00 37 1006.1
20260508004741 19 246 14.5 22.5 0.00 0.00 0.00 37 1006.2
20260508003743 19 220 20.9 27.4 0.00 0.00 0.00 36 1006.2
20260508002742 20 235 9.7 17.7 0.00 0.00 0.00 32 1006.3
20260508001741 20 227 11.3 20.9 0.00 0.00 0.00 32 1006.2
20260508000745 20 257 8.0 25.7 0.00 0.00 0.00 32 1006.4
20260507235745 20 209 16.1 16.1 0.00 0.00 0.00 29 1006.5
20260507234744 20 263 12.9 30.6 0.00 0.00 0.00 30 1006.6
20260507233743 19 246 9.7 17.7 0.00 0.00 0.00 29 1006.7
20260507232808 19 277 22.5 24.1 0.00 0.00 0.00 30 1006.9
20260507231748 19 293 12.9 20.9 0.00 0.00 0.00 30 1006.8
20260507230751 19 232 14.5 30.6 0.00 0.00 0.00 28 1006.7
20260507225751 19 271 16.1 25.7 0.00 0.00 0.00 28 1007.1
20260507224750 19 254 11.3 30.6 0.00 0.00 0.00 30 1007.1
20260507223749 19 267 22.5 30.6 0.00 0.00 0.00 28 1007.2
20260507222751 19 254 22.5 27.4 0.00 0.00 0.00 28 1007.3
20260507221753 19 277 16.1 32.2 0.00 0.00 0.00 28 1007.5
20260507220751 19 248 16.1 32.2 0.00 0.00 0.00 28 1007.6
20260507215756 18 273 14.5 45.1 0.00 0.00 0.00 29 1007.8
20260507214817 18 263 35.4 37.0 0.00 0.00 0.00 29 1007.8
20260507213741 18 271 33.8 40.2 0.00 0.00 0.00 29 1007.8
20260507212801 18 298 35.4 35.4 0.00 0.00 0.00 28 1008.0
20260507211742 18 266 22.5 29.0 0.00 0.00 0.00 28 1008.3
20260507210741 18 236 16.1 33.8 0.00 0.00 0.00 29 1008.5
20260507205740 18 269 27.4 30.6 0.00 0.00 0.00 27 1008.4
20260507204745 17 223 24.1 30.6 0.00 0.00 0.00 28 1008.6
20260507203746 16 268 16.1 24.1 0.00 0.00 0.00 29 1008.7